Location: Noordwijk
(52.2400°N, 4.4500°E)
Time: 05:51:30
(UTC+01:00)

NOAA 19 - All Passes

Search period start: 23 February 2018 00:00
Search period end: 05 March 2018 00:00
Orbit: 842 x 861 km, 99.1° (Epoch: 22 February)

Date Brightness Start Highest point End Pass type
(mag) Time Alt. Az. Time Alt. Az. Time Alt. Az.
23 Feb - 03:23:31 10° NE 03:26:33 15° E 03:29:36 10° ESE visible
23 Feb - 05:02:33 10° NNE 05:08:10 78° ESE 05:13:44 10° SSW visible
23 Feb - 06:43:59 10° N 06:48:19 24° NW 06:52:37 10° WSW visible
23 Feb - 13:18:34 10° ENE 13:20:28 12° NE 13:22:22 10° NNE daylight
23 Feb - 14:54:38 10° SE 14:59:54 47° ENE 15:05:12 10° N daylight
23 Feb - 16:35:42 10° SSW 16:40:43 35° W 16:45:48 10° NNW daylight
24 Feb - 03:12:50 10° ENE 03:14:48 12° E 03:16:45 10° ESE visible
24 Feb - 04:51:01 10° NNE 04:56:35 65° ESE 05:02:05 10° S visible
24 Feb - 06:32:15 10° N 06:36:54 28° WNW 06:41:30 10° WSW visible
24 Feb - 14:43:20 10° SE 14:48:25 39° ENE 14:53:33 10° N daylight
24 Feb - 16:23:51 10° S 16:29:04 43° W 16:34:22 10° NNW daylight
25 Feb - 04:39:31 10° NNE 04:44:59 53° E 04:50:24 10° S visible
25 Feb - 06:20:34 10° N 06:25:27 33° WNW 06:30:19 10° WSW visible
25 Feb - 14:32:05 10° ESE 14:36:58 33° ENE 14:41:53 10° N daylight
25 Feb - 16:12:04 10° S 16:17:27 52° W 16:22:54 10° NNW daylight
26 Feb - 04:28:03 10° NNE 04:33:22 44° E 04:38:38 10° S visible
26 Feb - 06:08:53 10° N 06:14:00 38° WNW 06:19:04 10° SW visible
26 Feb - 14:20:53 10° ESE 14:25:31 28° ENE 14:30:11 10° N daylight
26 Feb - 16:00:22 10° S 16:05:51 63° WSW 16:11:24 10° NNW daylight
26 Feb - 17:45:55 10° W 17:47:39 11° W 17:49:25 10° WNW daylight
27 Feb - 04:16:35 10° NNE 04:21:43 36° E 04:26:48 10° SSE visible
27 Feb - 05:57:14 10° N 06:02:31 46° WNW 06:07:47 10° SW visible
27 Feb - 07:40:08 10° NNW 07:41:56 12° NW 07:43:44 10° WNW daylight
27 Feb - 14:09:46 10° ESE 14:14:05 24° NE 14:18:28 10° N daylight
27 Feb - 15:48:44 10° SSE 15:54:16 76° WSW 15:59:52 10° NNW daylight
27 Feb - 17:32:59 10° WSW 17:35:54 14° W 17:38:49 10° NW daylight
28 Feb - 04:05:12 10° NNE 04:10:03 30° E 04:14:52 10° SSE visible
28 Feb - 05:45:36 10° N 05:51:02 55° WNW 05:56:25 10° SW visible
28 Feb - 07:27:59 10° NNW 07:30:36 14° NW 07:33:12 10° WNW daylight
28 Feb - 13:58:43 10° E 14:02:42 21° NE 14:06:42 10° N daylight
28 Feb - 15:37:08 10° SSE 15:42:42 89° ENE 15:48:18 10° NNW daylight
28 Feb - 17:20:31 10° SW 17:24:09 18° W 17:27:49 10° NW daylight
01 Mar - 03:53:51 10° NE 03:58:23 25° E 04:02:51 10° SE visible
01 Mar - 05:33:59 10° NNE 05:39:31 66° WNW 05:45:00 10° SSW visible
01 Mar - 07:16:02 10° NNW 07:19:14 16° NW 07:22:27 10° W daylight
01 Mar - 13:47:45 10° E 13:51:19 18° NE 13:54:53 10° N daylight
01 Mar - 15:25:38 10° SSE 15:31:09 75° ENE 15:36:44 10° NNW daylight
01 Mar - 17:08:16 10° SW 17:12:26 21° W 17:16:38 10° NW daylight
02 Mar - 03:42:35 10° NE 03:46:40 20° E 03:50:43 10° SE visible
02 Mar - 05:22:24 10° NNE 05:27:59 79° WNW 05:33:32 10° SSW visible
02 Mar - 07:04:10 10° N 07:07:52 18° NW 07:11:34 10° W daylight
02 Mar - 13:36:52 10° E 13:39:57 15° NE 13:43:01 10° NNE daylight
02 Mar - 15:14:10 10° SSE 15:19:38 63° ENE 15:25:08 10° N daylight
02 Mar - 16:56:09 10° SSW 17:00:44 26° W 17:05:21 10° NW daylight
03 Mar - 03:31:26 10° NE 03:34:57 17° E 03:38:24 10° SE visible
03 Mar - 05:10:49 10° NNE 05:16:26 87° ESE 05:21:59 10° SSW visible
03 Mar - 06:52:23 10° N 06:56:28 22° NW 07:00:34 10° W visible
03 Mar - 13:26:10 10° ENE 13:28:35 13° NE 13:31:02 10° NNE daylight
03 Mar - 15:02:45 10° SE 15:08:06 52° ENE 15:13:31 10° N daylight
03 Mar - 16:44:09 10° SSW 16:49:03 31° W 16:53:59 10° NNW daylight
04 Mar - 03:20:30 10° NE 03:23:11 14° E 03:25:51 10° ESE visible
04 Mar - 04:59:17 10° NNE 05:04:52 73° ESE 05:10:24 10° S visible
04 Mar - 06:40:38 10° N 06:45:04 25° NW 06:49:30 10° WSW visible
04 Mar - 13:15:44 10° ENE 13:17:16 11° NE 13:18:47 10° NNE daylight
04 Mar - 14:51:25 10° SE 14:56:37 44° ENE 15:01:53 10° N daylight
04 Mar - 16:32:15 10° SSW 16:37:23 38° W 16:42:35 10° NNW daylight
